Weather in Kundriuche / Kalininskyi

Ukraine / Luhansk Region     48°01′21″N   39°35′35″E
temp.,
°C
wind,
m/s
gust,
m/s
humid.,
%
clouds,
%
prec.,
mm/h
press.,
hPa
HPBL,
m
9 may, sun
sun900:00+13w2594100 1.2 1008106
03:00+8nnw91489100 1.3 1010548
06:00+6nnw81392100 2.6 1012641
09:00+6nnw81385100 3.9 1014822
12:00+10nnw101263100 0.0 10151346
15:00+11nnw91254100 0.1 10161848
18:00+10n5962100 0.0 10181058
21:00+7n3772100 0.1 1021288
10 may, mon
mon1000:00+6nw5117479 0.0 1022489
03:00+5nw51177100 0.0 1022407
06:00+6nnw61275100 0.0 1021729
09:00+8nnw81364100 0.0 10201432
12:00+7nnw81386100 2.8 10201092
15:00+7nnw91388100 5.3 10181111
18:00+6nnw91593100 5.4 10151088
21:00+7nnw81595100 12.6 1012835
11 may, tue
tue1100:00+10n91497100 7.6 1007798
03:00+7ene71197100 7.8 1010695
06:00+6ne71195100 0.1 1012814
09:00+6ne81192100 0.2 1013972
12:00+5e91295100 0.5 1014909
15:00+6ese131996100 2.4 10121151
18:00+7ese91497100 0.2 1016717
21:00+7se81297100 0.3 1018719
12 may, wed
wed1200:00+7sse91492100 0.5 1019753
03:00+7ese4897100 3.9 1019465
06:00+7se4797100 1.8 1020332
09:00+10ese51183100 1.8 1019659
12:00+16se9116260 0.0 10181453
15:00+17se795978 0.0 10171690
18:00+15se6970100 0.1 1017633
21:00+12e488516 0.1 1017132
13 may, thu
thu1300:00+10ese49835 0.0 1016134
03:00+9ese47805 0.0 1016106
06:00+10ese49801 0.0 1016178
09:00+17se696136 0.0 1016555
12:00+20se685495 0.0 1016961
15:00+22se7854100 0.0 10151023
18:00+20ese61068100 0.0 1015574
21:00+15ese498519 0.0 1015150